OpenBCM V1.07b12 (Linux)

Packet Radio Mailbox

DB0FHN

[JN59NK Nuernberg]

 Login: GUEST





  
CX2SA  > KEPS     17.09.04 04:34l 277 Lines 7265 Bytes #999 (0) @ AMSAT
BID : ORB04260.D
Read: GUEST
Subj: Orbital Elements  04260.MICROS
Path: DB0FHN<DB0FOR<DB0MRW<OK0PPL<DB0RES<ON0AR<EB2BJX<ED1ZAC<CX2SA
Sent: 040917/0326Z @:CX2SA.LAV.URY.SA #:14918 [Minas] FBB7.00e $:ORB04260.D
From: CX2SA@CX2SA.LAV.URY.SA
To  : KEPS@AMSAT


HR AMSAT ORBITAL ELEMENTS FOR THE MICROSATS
FROM WA5QGD FORT WORTH,TX September 16, 2004
SEND SUBSCRIBE/UNSUBSCRIBE TO majordomo@amsat.org ONLY
BID: ORB04260.D
TO ALL RADIO AMATEURS BT

Satellite: UO-14
Catalog number: 20437
Epoch time:      04259.68698891
Element set:     592
Inclination:       98.2072 deg
RA of node:       278.6359 deg
Eccentricity:    0.0009862
Arg of perigee:   294.0306 deg
Mean anomaly:      65.9844 deg
Mean motion:   14.31370218 rev/day
Decay rate:       -3.1e-07 rev/day^2
Epoch rev:           76476
Checksum:              341

Satellite: AO-16
Catalog number: 20439
Epoch time:      04260.16098710
Element set:     280
Inclination:       98.2397 deg
RA of node:       293.7110 deg
Eccentricity:    0.0010369
Arg of perigee:   302.0239 deg
Mean anomaly:      57.9941 deg
Mean motion:   14.31628573 rev/day
Decay rate:        5.9e-07 rev/day^2
Epoch rev:           76488
Checksum:              311

Satellite: WO-18
Catalog number: 20441
Epoch time:      04259.97027639
Element set:     467
Inclination:       98.2539 deg
RA of node:       297.5771 deg
Eccentricity:    0.0010903
Arg of perigee:   303.3083 deg
Mean anomaly:      56.7055 deg
Mean motion:   14.31703518 rev/day
Decay rate:        1.7e-07 rev/day^2
Epoch rev:           76491
Checksum:              314

Satellite: LO-19
Catalog number: 20442
Epoch time:      04260.16095106
Element set:     223
Inclination:       98.2682 deg
RA of node:       301.8293 deg
Eccentricity:    0.0011486
Arg of perigee:   301.8723 deg
Mean anomaly:      58.1342 deg
Mean motion:   14.31874932 rev/day
Decay rate:        4.2e-07 rev/day^2
Epoch rev:           76500
Checksum:              274

Satellite: UO-22
Catalog number: 21575
Epoch time:      04260.46828664
Element set:     205
Inclination:       98.2025 deg
RA of node:       230.7471 deg
Eccentricity:    0.0007381
Arg of perigee:   186.5673 deg
Mean anomaly:     173.5432 deg
Mean motion:   14.39413364 rev/day
Decay rate:        7.2e-07 rev/day^2
Epoch rev:           69112
Checksum:              294

Satellite: KO-23
Catalog number: 22077
Epoch time:      04259.78856044
Element set:    0351
Inclination:      066.0893 deg
RA of node:       001.1078 deg
Eccentricity:    0.0008991
Arg of perigee:   321.0371 deg
Mean anomaly:     038.9999 deg
Mean motion:   12.86425127 rev/day
Decay rate:       -3.7e-07 rev/day^2
Epoch rev:           56829
Checksum:              324

Satellite: AO-27
Catalog number: 22825
Epoch time:      04260.58160339
Element set:     941
Inclination:       98.2444 deg
RA of node:       264.7365 deg
Eccentricity:    0.0008194
Arg of perigee:     1.3033 deg
Mean anomaly:     358.8159 deg
Mean motion:   14.29085234 rev/day
Decay rate:       1.19e-06 rev/day^2
Epoch rev:           57214
Checksum:              302

Satellite: IO-26
Catalog number: 22826
Epoch time:      04260.58890233
Element set:     620
Inclination:       98.2439 deg
RA of node:       266.0271 deg
Eccentricity:    0.0009458
Arg of perigee:   358.2350 deg
Mean anomaly:       1.8798 deg
Mean motion:   14.29321404 rev/day
Decay rate:        7.7e-07 rev/day^2
Epoch rev:           57220
Checksum:              301

Satellite: KO-25
Catalog number: 22828
Epoch time:      04260.50661637
Element set:     877
Inclination:       98.2355 deg
RA of node:       266.1854 deg
Eccentricity:    0.0009520
Arg of perigee:   335.5197 deg
Mean anomaly:      24.5531 deg
Mean motion:   14.29641434 rev/day
Decay rate:        3.5e-07 rev/day^2
Epoch rev:           54041
Checksum:              301

Satellite: TO-31
Catalog number: 25396
Epoch time:      04259.96023660
Element set:    0121
Inclination:      098.5687 deg
RA of node:       328.9455 deg
Eccentricity:    0.0001517
Arg of perigee:   243.0066 deg
Mean anomaly:     117.0959 deg
Mean motion:   14.23632765 rev/day
Decay rate:       -4.3e-07 rev/day^2
Epoch rev:           32139
Checksum:              307

Satellite: GO-32
Catalog number: 25397
Epoch time:      04259.79077227
Element set:     559
Inclination:       98.5601 deg
RA of node:       326.7981 deg
Eccentricity:    0.0000257
Arg of perigee:   213.7868 deg
Mean anomaly:     146.3325 deg
Mean motion:   14.23051703 rev/day
Decay rate:       1.19e-06 rev/day^2
Epoch rev:           32130
Checksum:              305

Satellite: UO-36
Catalog number: 25693
Epoch time:      04260.99818082
Element set:     456
Inclination:       64.5592 deg
RA of node:        42.6225 deg
Eccentricity:    0.0046527
Arg of perigee:   247.2347 deg
Mean anomaly:     112.3839 deg
Mean motion:   14.78382911 rev/day
Decay rate:        9.9e-07 rev/day^2
Epoch rev:           29143
Checksum:              330

Satellite: SO-41
Catalog number: 26545
Epoch time:      04260.51474780
Element set:     878
Inclination:       64.5571 deg
RA of node:        60.3927 deg
Eccentricity:    0.0018852
Arg of perigee:   356.6020 deg
Mean anomaly:       3.4939 deg
Mean motion:   14.79853909 rev/day
Decay rate:       2.41e-06 rev/day^2
Epoch rev:           21442
Checksum:              312

Satellite: MO-46
Catalog number: 26548
Epoch time:      04260.66724007
Element set:     978
Inclination:       64.5577 deg
RA of node:        45.9473 deg
Eccentricity:    0.0019321
Arg of perigee:   337.3269 deg
Mean anomaly:      22.6960 deg
Mean motion:   14.82404673 rev/day
Decay rate:       6.07e-06 rev/day^2
Epoch rev:           21473
Checksum:              322

Satellite: SO-42
Catalog number: 26549
Epoch time:      04259.96017456
Element set:    0962
Inclination:      064.5505 deg
RA of node:       069.2388 deg
Eccentricity:    0.0018779
Arg of perigee:   012.4509 deg
Mean anomaly:     347.7057 deg
Mean motion:   14.78746581 rev/day
Decay rate:       2.70e-06 rev/day^2
Epoch rev:           21420
Checksum:              333

Satellite: NO-44
Catalog number: 26931
Epoch time:      04258.76759196
Element set:     855
Inclination:       67.0519 deg
RA of node:       217.1115 deg
Eccentricity:    0.0006516
Arg of perigee:   269.8326 deg
Mean anomaly:      90.2028 deg
Mean motion:   14.29319791 rev/day
Decay rate:       -8.1e-07 rev/day^2
Epoch rev:           15440
Checksum:              318

Satellite: AO-49
Catalog number: 27605
Epoch time:      04260.47485174
Element set:     538
Inclination:       64.5561 deg
RA of node:       247.4629 deg
Eccentricity:    0.0082491
Arg of perigee:   293.4784 deg
Mean anomaly:      65.7670 deg
Mean motion:   14.71927162 rev/day
Decay rate:       2.16e-06 rev/day^2
Epoch rev:            9356
Checksum:              336

Satellite: SO-50
Catalog number: 27607
Epoch time:      04259.96515537
Element set:    0519
Inclination:      064.5566 deg
RA of node:       253.1162 deg
Eccentricity:    0.0083684
Arg of perigee:   292.5668 deg
Mean anomaly:     066.6622 deg
Mean motion:   14.70719245 rev/day
Decay rate:       5.18e-06 rev/day^2
Epoch rev:           09340
Checksum:              330

Satellite: AO-51
Catalog number: 28375
Epoch time:      04259.74435255
Element set:      61
Inclination:       98.2527 deg
RA of node:       326.6205 deg
Eccentricity:    0.0084171
Arg of perigee:   340.3912 deg
Mean anomaly:      19.4069 deg
Mean motion:   14.40388313 rev/day
Decay rate:        6.0e-07 rev/day^2
Epoch rev:            1110
Checksum:              277



Read previous mail | Read next mail


 20.12.2025 00:17:27lGo back Go up